| time (UTC) | temp F | wind direction | speed MPH | gust MPH | rain 1hr in | rain 24hr in | rain mn in | humidity % | barometer mb |
| 20260508035005 | 56 | 158 | 0.0 | 0.0 | 0.00 | 0.00 | 0.00 | 80 | 1002.2 |
| 20260508033006 | 56 | 206 | 0.0 | 5.0 | 0.00 | 0.00 | 0.00 | 81 | 1002.3 |
| 20260508032005 | 56 | 201 | 5.0 | 6.0 | 0.00 | 0.00 | 0.00 | 81 | 1002.3 |
| 20260508030006 | 56 | 202 | 0.0 | 1.0 | 0.00 | 0.00 | 0.00 | 81 | 1002.4 |
| 20260508025006 | 56 | 133 | 0.0 | 7.0 | 0.00 | 0.00 | 0.00 | 82 | 1002.4 |
| 20260508024006 | 56 | 193 | 0.0 | 0.0 | 0.00 | 0.00 | 0.00 | 82 | 1002.3 |
| 20260508022005 | 56 | 188 | 0.0 | 0.0 | 0.00 | 0.00 | 0.00 | 83 | 1002.6 |
| 20260508021005 | 56 | 195 | 0.0 | 0.0 | 0.00 | 0.00 | 0.00 | 84 | 1002.8 |
| 20260508020005 | 56 | 178 | 0.0 | 0.0 | 0.00 | 0.00 | 0.00 | 84 | 1002.8 |
| 20260508015005 | 57 | 173 | 0.0 | 0.0 | 0.00 | 0.00 | 0.00 | 84 | 1002.8 |
| 20260508013006 | 57 | 202 | 6.0 | 7.0 | 0.00 | 0.00 | 0.00 | 83 | 1002.7 |
| 20260508012005 | 57 | 199 | 5.0 | 7.0 | 0.00 | 0.00 | 0.00 | 82 | 1003.0 |
| 20260508011005 | 57 | 191 | 0.0 | 0.0 | 0.00 | 0.00 | 0.00 | 82 | 1002.9 |
| 20260508010005 | 57 | 212 | 0.0 | 0.0 | 0.00 | 0.00 | 0.00 | 82 | 1003.0 |
| 20260508004005 | 58 | 177 | 0.0 | 0.0 | 0.00 | 0.00 | 0.00 | 81 | 1002.9 |
| 20260508001005 | 58 | 132 | 0.0 | 0.0 | 0.00 | 0.00 | 0.00 | 80 | 1003.1 |
| 20260508000005 | 58 | 227 | 0.0 | 0.0 | 0.00 | 0.00 | 0.00 | 80 | 1003.3 |
| 20260507235005 | 58 | 137 | 0.0 | 0.0 | 0.00 | 0.00 | 0.00 | 80 | 1003.3 |
| 20260507234005 | 58 | 217 | 0.0 | 0.0 | 0.00 | 0.00 | 0.00 | 81 | 1003.4 |
| 20260507233005 | 58 | 232 | 0.0 | 0.0 | 0.00 | 0.00 | 0.00 | 80 | 1003.4 |
| 20260507232006 | 58 | 320 | 0.0 | 0.0 | 0.00 | 0.00 | 0.00 | 81 | 1003.5 |
| 20260507231005 | 58 | 22 | 0.0 | 0.0 | 0.00 | 0.00 | 0.00 | 79 | 1003.6 |
| 20260507230006 | 58 | 35 | 0.0 | 0.0 | 0.00 | 0.00 | 0.00 | 79 | 1003.9 |
| 20260507225005 | 58 | 274 | 0.0 | 0.0 | 0.00 | 0.00 | 0.00 | 79 | 1003.9 |
| 20260507223005 | 58 | 270 | 2.0 | 5.0 | 0.00 | 0.00 | 0.00 | 78 | 1004.0 |
| 20260507222005 | 58 | 290 | 2.0 | 5.0 | 0.00 | 0.00 | 0.00 | 78 | 1004.0 |
| 20260507221005 | 58 | 269 | 1.0 | 6.0 | 0.00 | 0.00 | 0.00 | 78 | 1004.1 |
| 20260507215005 | 59 | 248 | 0.0 | 0.0 | 0.00 | 0.00 | 0.00 | 77 | 1004.2 |
| 20260507214005 | 59 | 303 | 0.0 | 0.0 | 0.00 | 0.00 | 0.00 | 76 | 1004.2 |
| 20260507213005 | 59 | 240 | 0.0 | 0.0 | 0.00 | 0.00 | 0.00 | 75 | 1004.4 |
| 20260507212005 | 60 | 287 | 0.0 | 0.0 | 0.00 | 0.00 | 0.00 | 74 | 1004.3 |
| 20260507211005 | 60 | 270 | 0.0 | 1.0 | 0.00 | 0.00 | 0.00 | 73 | 1004.2 |
| 20260507210007 | 60 | 265 | 3.0 | 3.0 | 0.00 | 0.00 | 0.00 | 73 | 1004.1 |
| 20260507205005 | 60 | 270 | 3.0 | 7.0 | 0.00 | 0.00 | 0.00 | 72 | 1004.0 |
| 20260507203005 | 60 | 270 | 0.0 | 0.0 | 0.00 | 0.00 | 0.00 | 71 | 1003.7 |
| 20260507202006 | 61 | 270 | 0.0 | 0.0 | 0.00 | 0.00 | 0.00 | 70 | 1003.6 |
| 20260507200005 | 61 | 293 | 0.0 | 0.0 | 0.00 | 0.00 | 0.00 | 68 | 1003.5 |
| 20260507195005 | 62 | 341 | 2.0 | 7.0 | 0.00 | 0.01 | 0.00 | 67 | 1003.4 |
| 20260507194006 | 62 | 280 | 3.0 | 6.0 | 0.00 | 0.01 | 0.00 | 66 | 1003.4 |
| 20260507193005 | 62 | 336 | 1.0 | 7.0 | 0.00 | 0.01 | 0.00 | 66 | 1003.3 |
| 20260507192005 | 62 | 288 | 2.0 | 8.0 | 0.00 | 0.01 | 0.00 | 66 | 1003.2 |
| 20260507191005 | 63 | 256 | 6.0 | 8.0 | 0.00 | 0.01 | 0.00 | 65 | 1003.1 |
| 20260507190006 | 63 | 248 | 5.0 | 9.0 | 0.00 | 0.01 | 0.00 | 64 | 1003.1 |
| 20260507185005 | 63 | 283 | 8.0 | 10.0 | 0.00 | 0.01 | 0.00 | 63 | 1003.0 |
| 20260507184005 | 64 | 273 | 7.0 | 10.0 | 0.00 | 0.01 | 0.00 | 62 | 1002.9 |
| 20260507183005 | 64 | 292 | 8.0 | 12.0 | 0.00 | 0.01 | 0.00 | 61 | 1002.8 |
| 20260507182005 | 64 | 258 | 12.0 | 15.0 | 0.00 | 0.01 | 0.00 | 61 | 1002.6 |
| 20260507181005 | 65 | 270 | 10.0 | 14.0 | 0.00 | 0.01 | 0.00 | 61 | 1002.4 |
| 20260507180005 | 66 | 272 | 12.0 | 16.0 | 0.00 | 0.01 | 0.00 | 59 | 1002.2 |
| 20260507175005 | 66 | 268 | 12.0 | 16.0 | 0.00 | 0.01 | 0.00 | 58 | 1002.1 |
| 20260507174005 | 67 | 271 | 13.0 | 14.0 | 0.00 | 0.01 | 0.00 | 57 | 1002.1 |
| 20260507173007 | 68 | 270 | 12.0 | 16.0 | 0.00 | 0.01 | 0.00 | 56 | 1002.0 |
| 20260507171006 | 69 | 261 | 11.0 | 14.0 | 0.00 | 0.01 | 0.00 | 53 | 1001.9 |
| 20260507170005 | 72 | 225 | 10.0 | 10.0 | 0.00 | 0.01 | 0.00 | 47 | 1001.8 |
| 20260507165006 | 73 | 270 | 10.0 | 13.0 | 0.00 | 0.01 | 0.00 | 47 | 1001.7 |
| 20260507164005 | 73 | 327 | 7.0 | 12.0 | 0.00 | 0.01 | 0.00 | 47 | 1001.6 |
| 20260507163005 | 72 | 273 | 9.0 | 13.0 | 0.00 | 0.01 | 0.00 | 45 | 1001.5 |
| 20260507161005 | 75 | 287 | 9.0 | 13.0 | 0.00 | 0.01 | 0.00 | 40 | 1001.5 |
| 20260507160008 | 75 | 233 | 9.0 | 13.0 | 0.00 | 0.01 | 0.00 | 39 | 1001.5 |
| 20260507155008 | 75 | 253 | 8.0 | 12.0 | 0.00 | 0.01 | 0.00 | 40 | 1001.6 |
| 20260507154017 | 74 | 171 | 3.0 | 12.0 | 0.00 | 0.01 | 0.00 | 39 | 1001.6 |
| 20260507153005 | 76 | 232 | 9.0 | 14.0 | 0.00 | 0.01 | 0.00 | 37 | 1001.6 |
| 20260507152006 | 77 | 237 | 3.0 | 12.0 | 0.00 | 0.01 | 0.00 | 36 | 1001.9 |
| 20260507151005 | 75 | 270 | 5.0 | 10.0 | 0.00 | 0.01 | 0.00 | 38 | 1002.0 |
| 20260507150006 | 73 | 247 | 7.0 | 10.0 | 0.00 | 0.01 | 0.00 | 40 | 1002.2 |
| 20260507145014 | 75 | 250 | 8.0 | 12.0 | 0.00 | 0.01 | 0.00 | 38 | 1002.2 |
| 20260507144006 | 77 | 261 | 10.0 | 13.0 | 0.00 | 0.01 | 0.00 | 36 | 1002.2 |
| 20260507143008 | 78 | 7 | 3.0 | 6.0 | 0.00 | 0.01 | 0.00 | 35 | 1002.2 |
| 20260507142005 | 77 | 236 | 6.0 | 13.0 | 0.00 | 0.01 | 0.00 | 34 | 1002.5 |
| 20260507141007 | 78 | 236 | 9.0 | 12.0 | 0.00 | 0.01 | 0.00 | 35 | 1002.5 |
| 20260507140006 | 75 | 270 | 7.0 | 10.0 | 0.00 | 0.01 | 0.00 | 38 | 1002.6 |
| 20260507134005 | 74 | 305 | 4.0 | 9.0 | 0.00 | 0.01 | 0.00 | 37 | 1002.7 |
| 20260507133005 | 75 | 231 | 6.0 | 12.0 | 0.00 | 0.01 | 0.00 | 37 | 1002.7 |
| 20260507132005 | 72 | 260 | 7.0 | 14.0 | 0.00 | 0.01 | 0.00 | 40 | 1002.8 |
| 20260507131005 | 75 | 293 | 3.0 | 9.0 | 0.00 | 0.01 | 0.00 | 38 | 1002.9 |
| 20260507130004 | 76 | 276 | 3.0 | 8.0 | 0.00 | 0.01 | 0.00 | 35 | 1002.8 |
| 20260507125005 | 78 | 249 | 5.0 | 10.0 | 0.00 | 0.01 | 0.00 | 34 | 1002.9 |
| 20260507124005 | 77 | 259 | 4.0 | 10.0 | 0.00 | 0.01 | 0.00 | 35 | 1003.0 |
| 20260507122005 | 71 | 270 | 5.0 | 8.0 | 0.00 | 0.01 | 0.00 | 44 | 1003.5 |
| 20260507121005 | 72 | 270 | 9.0 | 13.0 | 0.00 | 0.01 | 0.00 | 43 | 1003.5 |
| 20260507120005 | 77 | 252 | 2.0 | 9.0 | 0.00 | 0.01 | 0.00 | 36 | 1003.6 |
| 20260507114005 | 75 | 202 | 6.0 | 12.0 | 0.00 | 0.01 | 0.00 | 38 | 1003.8 |
| 20260507113006 | 73 | 182 | 6.0 | 8.0 | 0.00 | 0.01 | 0.00 | 39 | 1003.7 |
| 20260507112005 | 76 | 248 | 0.0 | 10.0 | 0.00 | 0.01 | 0.00 | 38 | 1003.6 |
| 20260507111005 | 77 | 233 | 3.0 | 9.0 | 0.00 | 0.01 | 0.00 | 37 | 1003.6 |
| 20260507110005 | 73 | 323 | 4.0 | 7.0 | 0.00 | 0.01 | 0.00 | 43 | 1003.8 |
| 20260507105005 | 72 | 275 | 3.0 | 9.0 | 0.00 | 0.01 | 0.00 | 45 | 1003.7 |
| 20260507104005 | 75 | 225 | 4.0 | 6.0 | 0.00 | 0.01 | 0.00 | 41 | 1003.7 |
| 20260507103005 | 74 | 280 | 0.0 | 1.0 | 0.00 | 0.01 | 0.00 | 43 | 1003.7 |
| 20260507102007 | 71 | 63 | 0.0 | 0.0 | 0.00 | 0.01 | 0.00 | 50 | 1003.7 |
| 20260507101005 | 73 | 338 | 0.0 | 7.0 | 0.00 | 0.01 | 0.00 | 47 | 1003.7 |
| 20260507100005 | 76 | 292 | 0.0 | 0.0 | 0.00 | 0.01 | 0.00 | 43 | 1003.8 |
| 20260507095005 | 76 | 55 | 0.0 | 0.0 | 0.00 | 0.01 | 0.00 | 44 | 1003.9 |
| 20260507094006 | 77 | 270 | 0.0 | 0.0 | 0.00 | 0.01 | 0.00 | 41 | 1003.9 |
| 20260507093005 | 71 | 104 | 0.0 | 5.0 | 0.00 | 0.01 | 0.00 | 50 | 1003.8 |
| 20260507092005 | 71 | 8 | 1.0 | 6.0 | 0.00 | 0.01 | 0.00 | 51 | 1003.9 |
| 20260507091005 | 76 | 256 | 0.0 | 0.0 | 0.00 | 0.01 | 0.00 | 44 | 1003.8 |
| 20260507090005 | 73 | 111 | 0.0 | 0.0 | 0.00 | 0.01 | 0.00 | 46 | 1003.7 |
| 20260507085005 | 73 | 257 | 0.0 | 0.0 | 0.00 | 0.01 | 0.00 | 49 | 1003.7 |
| 20260507083005 | 72 | 112 | 0.0 | 0.0 | 0.00 | 0.01 | 0.00 | 53 | 1003.6 |
| 20260507082004 | 69 | 108 | 0.0 | 0.0 | 0.00 | 0.01 | 0.00 | 60 | 1003.7 |
| 20260507081005 | 67 | 127 | 0.0 | 0.0 | 0.00 | 0.01 | 0.00 | 63 | 1003.7 |
| 20260507080005 | 64 | 173 | 0.0 | 2.0 | 0.00 | 0.01 | 0.00 | 68 | 1003.8 |
| 20260507074005 | 59 | 202 | 5.0 | 7.0 | 0.00 | 0.01 | 0.00 | 78 | 1004.0 |
| 20260507072005 | 58 | 215 | 0.0 | 5.0 | 0.00 | 0.01 | 0.00 | 79 | 1003.6 |
| 20260507071004 | 56 | 188 | 1.0 | 2.0 | 0.00 | 0.01 | 0.00 | 84 | 1003.4 |
| 20260507065005 | 55 | 211 | 0.0 | 1.0 | 0.00 | 0.01 | 0.00 | 84 | 1003.3 |
| 20260507064005 | 54 | 195 | 0.0 | 3.0 | 0.00 | 0.01 | 0.00 | 87 | 1003.2 |
| 20260507063005 | 52 | 190 | 1.0 | 3.0 | 0.00 | 0.01 | 0.00 | 90 | 1003.2 |
| 20260507062005 | 51 | 187 | 0.0 | 1.0 | 0.00 | 0.01 | 0.00 | 92 | 1002.9 |
| 20260507060004 | 49 | 190 | 0.0 | 0.0 | 0.00 | 0.01 | 0.00 | 98 | 1002.7 |
| 20260507055005 | 50 | 192 | 0.0 | 0.0 | 0.00 | 0.01 | 0.00 | 99 | 1002.6 |
| 20260507054004 | 50 | 180 | 0.0 | 0.0 | 0.00 | 0.01 | 0.00 | 96 | 1002.5 |
| 20260507053005 | 50 | 112 | 0.0 | 0.0 | 0.00 | 0.01 | 0.00 | 96 | 1002.7 |
| 20260507052005 | 51 | 158 | 0.0 | 0.0 | 0.00 | 0.01 | 0.00 | 97 | 1002.7 |
| 20260507051006 | 50 | 112 | 0.0 | 0.0 | 0.00 | 0.01 | 0.00 | 98 | 1002.7 |
| 20260507050006 | 51 | 113 | 0.0 | 0.0 | 0.00 | 0.01 | 0.00 | 98 | 1002.9 |
| 20260507045006 | 51 | 99 | 0.0 | 0.0 | 0.00 | 0.01 | 0.00 | 96 | 1002.9 |
| 20260507044006 | 51 | 137 | 0.0 | 0.0 | 0.00 | 0.01 | 0.00 | 95 | 1003.0 |
| 20260507042006 | 51 | 202 | 0.0 | 0.0 | 0.00 | 0.01 | 0.00 | 95 | 1003.2 |
| 20260507041005 | 51 | 119 | 0.0 | 0.0 | 0.00 | 0.01 | 0.00 | 95 | 1003.3 |